Location: Shannon
(40.5500°S, 175.4167°E)
Time: 11:18:01
(UTC+00:00)

Cosmos 2322 - Pass Details

Date: 17 November 2025
Orbit: 841 x 852 km, 71.0° (Epoch: 10 December)

Event Time Altitude Azimuth Distance (km) Brightness Sun altitude
Rises 12:27:31 0° 205° (SSW) 3,455 7.7 -30.1°
Reaches altitude 10° 12:30:00 10° 205° (SSW) 2,512 6.8 -30.0°
Enters shadow 12:35:00 67° 222° (SW) 933 3.9 -29.9°
